User: anonymous   Login
Location: Northcutt
(34.7304°N, 84.4305°W)
Time: 16:59:33
(UTC+00:00)
Language:

Courier 1B - Orbit

View from above orbital plane
View from above orbital plane
View from above satellite
View from above satellite

Ground track
Ground track

The orbit data is extracted from the following two-line orbital elements,

1    58U 60013A   22269.26969457  .00000106  00000-0  33875-4 0  9999
2    58  28.3257 199.6489 0165057 107.7312 254.1321 13.46338461 51196
Epoch (UTC): 26 September 2022 06:28:21
Eccentricity: 0.0165057
inclination: 28.3257°
perigee height: 962 km
apogee height: 1209 km
right ascension of ascending node: 199.6489°
argument of perigee: 107.7312°
revolutions per day: 13.46338461
mean anomaly at epoch: 254.1321°
orbit number at epoch: 5119

The dashed part of the orbit path shows where the satellite is in the earth's shadow,  

DLR